Hourly Weather Bolshoe Aretovo

Today, 17 June, Thursday

Time Temperature Precipitation Wind Pressure Humidity
00:00 +13°C° 0 mm 2 mps 750 mmHg 77%
01:00 +12°C° 0 mm 2 mps 750 mmHg 79%
02:00 +12°C° 0 mm 2 mps 750 mmHg 80%
03:00 +12°C° 0 mm 2 mps 751 mmHg 79%
04:00 +13°C° 0 mm 2 mps 751 mmHg 78%
05:00 +13°C° 0 mm 1 mps 751 mmHg 77%
06:00 +15°C° 0 mm 2 mps 751 mmHg 70%
07:00 +17°C° 0 mm 2 mps 752 mmHg 62%
08:00 +20°C° 0 mm 2 mps 752 mmHg 56%
09:00 +22°C° 0 mm 1 mps 752 mmHg 52%
10:00 +23°C° 0 mm 1 mps 752 mmHg 48%
11:00 +25°C° 0 mm 1 mps 753 mmHg 44%
12:00 +25°C° 0 mm 1 mps 753 mmHg 43%
13:00 +26°C° 0 mm 1 mps 753 mmHg 42%
14:00 +27°C° 0 mm 1 mps 753 mmHg 41%
15:00 +26°C° 0 mm 1 mps 752 mmHg 43%
16:00 +26°C° 0 mm 1 mps 752 mmHg 46%
17:00 +26°C° 0 mm 1 mps 752 mmHg 48%
18:00 +24°C° 0 mm 1 mps 752 mmHg 56%
19:00 +22°C° 0 mm 1 mps 752 mmHg 64%
20:00 +20°C° 0 mm 1 mps 753 mmHg 72%
21:00 +19°C° 0 mm 1 mps 753 mmHg 74%
22:00 +18°C° 0 mm 1 mps 753 mmHg 77%
23:00 +16°C° 0 mm 1 mps 753 mmHg 79%

Tomorrow, 18 June, Friday

Time Temperature Precipitation Wind Pressure Humidity
00:00 +15°C° 0 mm 1 mps 753 mmHg 81%
01:00 +15°C° 0 mm 1 mps 753 mmHg 83%
02:00 +14°C° 0 mm 1 mps 753 mmHg 86%
03:00 +15°C° 0 mm 1 mps 754 mmHg 85%
04:00 +15°C° 0 mm 1 mps 754 mmHg 84%
05:00 +16°C° 0 mm 1 mps 754 mmHg 83%
06:00 +19°C° 0 mm 1 mps 754 mmHg 76%
07:00 +21°C° 0 mm 1 mps 754 mmHg 69%
08:00 +23°C° 0 mm 2 mps 754 mmHg 62%
09:00 +24°C° 0 mm 2 mps 754 mmHg 58%
10:00 +25°C° 0 mm 2 mps 754 mmHg 54%
11:00 +26°C° 0 mm 2 mps 754 mmHg 50%
12:00 +26°C° 0 mm 2 mps 754 mmHg 49%
13:00 +27°C° 0 mm 3 mps 754 mmHg 48%
14:00 +27°C° 0 mm 3 mps 753 mmHg 47%
15:00 +27°C° 0 mm 3 mps 753 mmHg 50%
16:00 +27°C° 0 mm 3 mps 753 mmHg 52%
17:00 +26°C° 0 mm 2 mps 753 mmHg 55%
18:00 +24°C° 0 mm 2 mps 753 mmHg 64%
19:00 +23°C° 0 mm 2 mps 753 mmHg 72%
20:00 +20°C° 0 mm 2 mps 753 mmHg 81%
21:00 +19°C° 0 mm 2 mps 753 mmHg 83%
22:00 +18°C° 0 mm 2 mps 753 mmHg 86%
23:00 +18°C° 0 mm 1 mps 753 mmHg 89%

Day after tomorrow, 19 June, Saturday

Time Temperature Precipitation Wind Pressure Humidity
00:00 +16°C° 0 mm 1 mps 753 mmHg 90%
01:00 +16°C° 0 mm 1 mps 753 mmHg 92%
02:00 +15°C° 0 mm 1 mps 753 mmHg 94%
03:00 +16°C° 0 mm 1 mps 753 mmHg 93%
04:00 +16°C° 0 mm 1 mps 753 mmHg 91%
05:00 +18°C° 0 mm 1 mps 753 mmHg 90%
06:00 +18°C° 0 mm 2 mps 753 mmHg 83%
07:00 +20°C° 0 mm 2 mps 753 mmHg 75%
08:00 +23°C° 0 mm 2 mps 753 mmHg 68%
09:00 +24°C° 0 mm 2 mps 753 mmHg 63%
10:00 +25°C° 0 mm 2 mps 753 mmHg 58%
11:00 +26°C° 0 mm 3 mps 753 mmHg 54%
12:00 +27°C° 0 mm 3 mps 753 mmHg 52%
13:00 +27°C° 0 mm 3 mps 752 mmHg 51%
14:00 +28°C° 0 mm 3 mps 752 mmHg 49%
15:00 +28°C° 0 mm 3 mps 752 mmHg 52%
16:00 +27°C° 0 mm 2 mps 752 mmHg 54%
17:00 +27°C° 0 mm 2 mps 751 mmHg 57%
18:00 +25°C° 0 mm 2 mps 751 mmHg 66%
19:00 +23°C° 0 mm 2 mps 751 mmHg 74%
20:00 +21°C° 0 mm 2 mps 751 mmHg 83%
21:00 +20°C° 0 mm 2 mps 751 mmHg 86%
22:00 +19°C° 0 mm 2 mps 751 mmHg 89%
23:00 +18°C° 0 mm 2 mps 751 mmHg 92%

20 June, Sunday

Time Temperature Precipitation Wind Pressure Humidity
00:00 +17°C° 0 mm 2 mps 752 mmHg 93%
01:00 +17°C° 0 mm 2 mps 752 mmHg 94%
02:00 +16°C° 0 mm 2 mps 752 mmHg 94%
03:00 +18°C° 0 mm 1 mps 752 mmHg 93%
04:00 +18°C° 0 mm 1 mps 752 mmHg 92%
05:00 +18°C° 0 mm 1 mps 752 mmHg 91%
06:00 +20°C° 0 mm 1 mps 752 mmHg 84%
07:00 +21°C° 0 mm 2 mps 751 mmHg 76%
08:00 +24°C° 0 mm 2 mps 751 mmHg 69%
09:00 +25°C° 0 mm 2 mps 751 mmHg 65%
10:00 +26°C° 0 mm 2 mps 751 mmHg 60%
11:00 +28°C° 0 mm 3 mps 751 mmHg 56%
12:00 +28°C° 0 mm 3 mps 751 mmHg 55%
13:00 +29°C° 0 mm 3 mps 751 mmHg 55%
14:00 +29°C° 0 mm 3 mps 750 mmHg 54%
15:00 +29°C° 0 mm 2 mps 750 mmHg 56%
16:00 +29°C° 0 mm 2 mps 750 mmHg 58%
17:00 +29°C° 0 mm 2 mps 750 mmHg 60%
18:00 +27°C° 0 mm 2 mps 749 mmHg 68%
19:00 +25°C° 0 mm 2 mps 749 mmHg 76%
20:00 +24°C° 0 mm 2 mps 749 mmHg 85%
21:00 +23°C° 0 mm 2 mps 749 mmHg 87%
22:00 +21°C° 0 mm 2 mps 749 mmHg 90%
23:00 +21°C° 0 mm 1 mps 750 mmHg 92%

21 June, Monday

Time Temperature Precipitation Wind Pressure Humidity
00:00 +20°C° 0 mm 1 mps 750 mmHg 93%
01:00 +20°C° 0 mm 1 mps 750 mmHg 93%
02:00 +19°C° 0 mm 1 mps 750 mmHg 94%
03:00 +20°C° 0 mm 1 mps 750 mmHg 92%
04:00 +20°C° 0 mm 1 mps 750 mmHg 90%
05:00 +20°C° 0 mm 1 mps 750 mmHg 89%
06:00 +22°C° 0 mm 1 mps 750 mmHg 82%
07:00 +23°C° 0 mm 2 mps 750 mmHg 76%
08:00 +25°C° 0 mm 2 mps 749 mmHg 69%
09:00 +26°C° 0 mm 2 mps 749 mmHg 64%
10:00 +27°C° 0 mm 3 mps 749 mmHg 59%
11:00 +28°C° 0 mm 3 mps 749 mmHg 54%
12:00 +29°C° 0 mm 3 mps 749 mmHg 52%
13:00 +29°C° 0 mm 3 mps 749 mmHg 51%
14:00 +30°C° 0 mm 3 mps 748 mmHg 49%
15:00 +30°C° 0 mm 3 mps 748 mmHg 51%
16:00 +29°C° 0 mm 3 mps 748 mmHg 53%
17:00 +29°C° 0 mm 3 mps 748 mmHg 55%
18:00 +27°C° 0 mm 2 mps 748 mmHg 62%
19:00 +25°C° 0 mm 2 mps 748 mmHg 69%
20:00 +24°C° 0 mm 2 mps 748 mmHg 76%
21:00 +23°C° 0 mm 2 mps 748 mmHg 79%
22:00 +21°C° 0 mm 2 mps 748 mmHg 82%
23:00 +20°C° 0 mm 3 mps 748 mmHg 85%

22 June, Tuesday

Time Temperature Precipitation Wind Pressure Humidity
00:00 +19°C° 0 mm 2 mps 748 mmHg 88%
01:00 +19°C° 0 mm 2 mps 748 mmHg 92%
02:00 +19°C° 0 mm 2 mps 748 mmHg 95%
03:00 +19°C° 0 mm 2 mps 748 mmHg 94%
04:00 +19°C° 0 mm 2 mps 748 mmHg 93%
05:00 +20°C° 0 mm 2 mps 748 mmHg 92%
06:00 +22°C° 0 mm 3 mps 748 mmHg 84%
07:00 +25°C° 0 mm 3 mps 748 mmHg 76%
08:00 +27°C° 0 mm 4 mps 748 mmHg 68%
09:00 +28°C° 0 mm 4 mps 748 mmHg 62%
10:00 +29°C° 0 mm 4 mps 748 mmHg 55%
11:00 +30°C° 0 mm 5 mps 748 mmHg 49%
12:00 +32°C° 0 mm 5 mps 748 mmHg 47%
13:00 +33°C° 0 mm 5 mps 748 mmHg 46%
14:00 +33°C° 0 mm 5 mps 748 mmHg 44%
15:00 +33°C° 0 mm 5 mps 748 mmHg 47%
16:00 +32°C° 0 mm 4 mps 747 mmHg 49%
17:00 +32°C° 0 mm 4 mps 747 mmHg 52%
18:00 +29°C° 0 mm 3 mps 747 mmHg 60%
19:00 +27°C° 0 mm 3 mps 747 mmHg 69%
20:00 +25°C° 0 mm 3 mps 747 mmHg 77%
21:00 +25°C° 0 mm 3 mps 748 mmHg 80%
22:00 +24°C° 0 mm 3 mps 748 mmHg 82%
23:00 +22°C° 0 mm 3 mps 748 mmHg 85%
Show more